Location: Dackenheim
(49.5215°N, 8.1854°E)
Time: 04:08:46
(UTC+00:00)

AO-85 - Pass Details

Date: 20 March 2026
Orbit: 507 x 686 km, 64.8° (Epoch: 13 April)

Event Time Altitude Azimuth Distance (km) Brightness Sun altitude
Exits shadow 03:19:37 53° 318° (NW) 646 ? -21.3°
Drops below altitude 10° 03:23:22 10° 32° (NNE) 1,739 ? -20.8°
Sets 03:25:33 0° 38° (NE) 2,622 ? -20.5°
